KLRF

Little Rock Air Force Base

Airport
ICAO code
KLRF
Summary
ICAO Region
NAM
ICAO Territory
Location

Jacksonville, Arkansas

Serving
Little Rock
Elevation
310 ft
Coordinates
34° 54' 50" N , 92° 8' 38" W
KCC
Metar
KLRF 181555Z AUTO 20008KT 10SM BKN021 BKN036 26/20 A2993 RMK AO2 CIG 019V024 SLP135 T02560204 $

Little Rock Air Force Base is a United States Air Force base located approximately 16 nm northeast of the central business district of Little Rock, Arkansas, USA.

Runways

Designator Length Width Surface Rops
69/249 1061 18 ASPH No/No
7/25 3658 61 CON No/No

Airport map

Aerial View

SKYbrary Partners:

Safety knowledge contributed by: